Weather History for KFQD - August, 2013

Change the Weather History Date:

Tuesday, August 27, 2013

  Actual Average (KAVL) Record (KAVL)
Temperature  
Mean Temperature 74 °F 72 °F  
Max Temperature 88 °F 82 °F 93 °F (1943)
Min Temperature 60 °F 62 °F 49 °F (1945)
Degree Days  
Heating Degree Days 0 0  
Month to date heating degree days 0  
Since 1 June heating degree days 14  
Since 1 July heating degree days 0  
Cooling Degree Days 9 7  
Month to date cooling degree days 222  
Year to date cooling degree days 732  
Since 1 June cooling degree days 674  
Growing Degree Days 24 (Base 50)    
Moisture  
Dew Point 66 °F    
Average Humidity 81    
Maximum Humidity 100    
Minimum Humidity 48    
Precipitation  
Precipitation 0.00 in 0.15 in 2.56 in (1995)
Month to date precipitation 3.85  
Year to date precipitation 31.06  
Snow  
Snow 0.00 in 0.00 in 0.00 in ()
Month to date snowfall 0.0  
Since 1 June snowfall 0.0  
Since 1 July snowfall 0.0  
Snow Depth -    
Sea Level Pressure  
Sea Level Pressure 30.11 in    
Wind  
Wind Speed 2 mph (WNW)    
Max Wind Speed 10 mph    
Max Gust Speed -    
Visibility 8 miles    
Events      
T = Trace of Precipitation, MM = Missing Value Source: NWS Daily Summary

Daily Weather History Graph

Daily Weather History Graph

Search for Another Location

Airport or City:

Trip Planner

Search our weather history database for the weather conditions in past years. The results will help you decide how hot, cold, wet, or windy it might be!

Date:

Astronomy

Aug. 27, 2013 Rise Set
Actual Time 6:56 AM EDT 8:01 PM EDT
Civil Twilight 6:30 AM EDT 8:27 PM EDT
Nautical Twilight 5:59 AM EDT 8:58 PM EDT
Astronomical Twilight 5:26 AM EDT 9:30 PM EDT
Moon No Moon Rise 1:37 PM EDT (8/27)
Length of Visible Light 13h 57m
Length of Day
13h 04m
Waning Gibbous, 57% of the Moon is Illuminated
Aug 27
Waning Gibbous
Aug 28
Last Quarter
Sep 5
New
Sep 12
First Quarter
Sep 19
Full

Hourly Weather History & Observations

Time (EDT) Temp. Heat Index Dew Point Humidity Pressure Visibility Wind Dir Wind Speed Gust Speed Precip Events Conditions
12:14 AM 66.2 °F - 64.4 °F 94% 30.18 in 10.0 mi Calm Calm - N/A   Clear
12:34 AM 66.2 °F - 64.4 °F 94% 30.19 in 10.0 mi Calm Calm - N/A   Clear
12:54 AM 66.2 °F - 64.4 °F 94% 30.19 in 10.0 mi Calm Calm - N/A   Clear
1:14 AM 64.4 °F - 64.4 °F 100% 30.18 in 7.0 mi Calm Calm - N/A   Clear
1:34 AM 64.4 °F - 62.6 °F 94% 30.18 in 7.0 mi Calm Calm - N/A   Clear
1:54 AM 64.4 °F - 62.6 °F 94% 30.17 in 7.0 mi West 8.1 mph - N/A   Clear
2:14 AM 64.4 °F - 62.6 °F 94% 30.17 in 7.0 mi WNW 3.5 mph - N/A   Clear
2:34 AM 64.4 °F - 62.6 °F 94% 30.16 in 7.0 mi West 6.9 mph - N/A   Clear
2:54 AM 62.6 °F - 62.6 °F 100% 30.16 in 5.0 mi Calm Calm - N/A   Clear
3:14 AM 62.6 °F - 62.6 °F 100% 30.15 in 7.0 mi Calm Calm - N/A   Scattered Clouds
3:34 AM 62.6 °F - 62.6 °F 100% 30.15 in 5.0 mi Calm Calm - N/A   Scattered Clouds
3:54 AM 62.6 °F - 62.6 °F 100% 30.15 in 5.0 mi North 3.5 mph - N/A   Scattered Clouds
4:14 AM 62.6 °F - 62.6 °F 100% 30.14 in 7.0 mi West 5.8 mph - N/A   Clear
4:34 AM 60.8 °F - 60.8 °F 100% 30.14 in 5.0 mi Calm Calm - N/A   Clear
4:56 AM 62.6 °F - 60.8 °F 94% 30.14 in 10.0 mi West 5.8 mph - N/A   Clear
5:14 AM 60.8 °F - 60.8 °F 100% 30.14 in 5.0 mi Calm Calm - N/A   Clear
5:35 AM 60.8 °F - 60.8 °F 100% 30.13 in 7.0 mi Calm Calm - N/A   Clear
5:54 AM 60.8 °F - 60.8 °F 100% 30.14 in 7.0 mi Calm Calm - N/A   Clear
6:14 AM 60.8 °F - 60.8 °F 100% 30.14 in 7.0 mi Calm Calm - N/A   Clear
6:34 AM 60.8 °F - 60.8 °F 100% 30.14 in 7.0 mi WNW 3.5 mph - N/A   Clear
6:54 AM 60.8 °F - 60.8 °F 100% 30.14 in 7.0 mi Calm Calm - N/A   Clear
6:55 AM - - - N/A% 30.14 in 7.0 mi Calm Calm - N/A   Clear
7:15 AM 60.4 °F - 60.1 °F 99% 30.14 in 7.0 mi Calm Calm - N/A   Clear
7:35 AM 60.8 °F - 60.3 °F 98% 30.14 in 5.0 mi Calm Calm - N/A   Clear
7:55 AM 61.7 °F - 61.0 °F 97% 30.14 in 7.0 mi Calm Calm - N/A   Clear
8:15 AM 63.0 °F - 61.7 °F 96% 30.14 in 7.0 mi Calm Calm - N/A   Clear
8:35 AM 65.8 °F - 62.8 °F 90% 30.14 in 10.0 mi NW 5.8 mph - N/A   Clear
8:55 AM 67.5 °F - 63.9 °F 88% 30.14 in 10.0 mi West 5.8 mph - N/A   Clear
9:15 AM 69.6 °F - 64.6 °F 84% 30.14 in 10.0 mi West 10.4 mph - N/A   Clear
9:35 AM 71.2 °F - 65.3 °F 81% 30.14 in 10.0 mi West 4.6 mph - N/A   Clear
9:55 AM 72.7 °F - 65.7 °F 79% 30.13 in 10.0 mi West 3.5 mph - N/A   Clear
10:15 AM 74.1 °F - 64.6 °F 72% 30.14 in 10.0 mi Calm Calm - N/A   Clear
10:35 AM 75.4 °F - 65.1 °F 70% 30.14 in 10.0 mi Calm Calm - N/A   Clear
10:55 AM 76.5 °F - 65.8 °F 70% 30.14 in 10.0 mi Calm Calm - N/A   Clear
11:15 AM 77.7 °F - 65.8 °F 67% 30.14 in 10.0 mi Calm Calm - N/A   Clear
11:35 AM 79.5 °F - 65.8 °F 63% 30.14 in 10.0 mi Calm Calm - N/A   Clear
11:55 AM 80.1 °F 82.2 °F 66.6 °F 63% 30.13 in 10.0 mi Calm Calm - N/A   Clear
12:15 PM 81.5 °F 83.7 °F 66.6 °F 60% 30.12 in 10.0 mi West 3.5 mph - N/A   Clear
12:35 PM 82.6 °F 85.7 °F 68.2 °F 62% 30.12 in 10.0 mi West 3.5 mph - N/A   Clear
12:55 PM 82.9 °F 85.6 °F 67.3 °F 59% 30.11 in 10.0 mi Calm Calm - N/A   Clear
1:15 PM 82.9 °F 86.0 °F 68.2 °F 61% 30.11 in 10.0 mi Calm Calm - N/A   Clear
1:35 PM 84.0 °F 87.6 °F 68.9 °F 60% 30.10 in 10.0 mi West 3.5 mph - N/A   Clear
1:55 PM 85.3 °F 89.1 °F 68.9 °F 58% 30.10 in 10.0 mi West 3.5 mph - N/A   Scattered Clouds
2:15 PM 85.6 °F 88.5 °F 67.3 °F 54% 30.09 in 10.0 mi NE 4.6 mph - N/A   Scattered Clouds
2:35 PM 86.2 °F 90.4 °F 69.1 °F 57% 30.09 in 10.0 mi WNW 3.5 mph - N/A   Scattered Clouds
2:55 PM 85.6 °F 89.4 °F 68.7 °F 57% 30.08 in 10.0 mi NNW 3.5 mph - N/A   Scattered Clouds
3:15 PM 85.5 °F 88.8 °F 68.4 °F 56% 30.07 in 10.0 mi WNW 3.5 mph - N/A   Clear
3:35 PM 86.7 °F 89.6 °F 66.9 °F 52% 30.06 in 10.0 mi SW 3.5 mph - N/A   Clear
3:55 PM 87.3 °F 89.5 °F 66.2 °F 49% 30.06 in 10.0 mi Calm Calm - N/A   Scattered Clouds
4:15 PM 88.0 °F 90.3 °F 66.2 °F 48% 30.05 in 10.0 mi NW 5.8 mph - N/A   Scattered Clouds
4:35 PM 87.3 °F 90.9 °F 68.2 °F 53% 30.05 in 10.0 mi WNW 6.9 mph - N/A   Scattered Clouds
4:55 PM 85.5 °F 89.1 °F 68.5 °F 57% 30.05 in 10.0 mi NW 3.5 mph - N/A   Scattered Clouds
5:15 PM 84.0 °F 87.8 °F 69.1 °F 61% 30.06 in 10.0 mi WNW 3.5 mph - N/A   Scattered Clouds
5:35 PM 83.8 °F 87.8 °F 69.6 °F 62% 30.06 in 10.0 mi NW 6.9 mph - N/A   Clear
5:55 PM 84.4 °F 88.2 °F 68.9 °F 60% 30.06 in 10.0 mi NW 3.5 mph - N/A   Clear
6:15 PM 83.5 °F 86.9 °F 68.5 °F 61% 30.06 in 10.0 mi Calm Calm - N/A   Clear
6:35 PM 82.6 °F 86.8 °F 70.5 °F 67% 30.05 in 10.0 mi Calm Calm - N/A   Clear
6:55 PM 81.0 °F 85.1 °F 71.6 °F 73% 30.06 in 7.0 mi Calm Calm - N/A   Clear
7:15 PM 79.9 °F - 72.5 °F 78% 30.05 in 7.0 mi Calm Calm - N/A   Clear
7:35 PM 78.3 °F - 72.5 °F 82% 30.05 in 7.0 mi Calm Calm - N/A   Clear
7:55 PM 76.6 °F - 73.0 °F 89% 30.05 in 5.0 mi Calm Calm - N/A   Clear
8:37 PM 75.2 °F - 71.6 °F 89% 30.06 in 7.0 mi NNW 3.5 mph - N/A   Clear
8:54 PM 75.2 °F - 71.6 °F 89% 30.06 in 7.0 mi Calm Calm - N/A   Clear
9:14 PM 75.2 °F - 71.6 °F 89% 30.06 in 5.0 mi Calm Calm - N/A   Clear
9:34 PM 75.2 °F - 71.6 °F 89% 30.06 in 5.0 mi Calm Calm - N/A   Clear
9:54 PM 73.4 °F - 71.6 °F 94% 30.06 in 4.0 mi Calm Calm - N/A   Clear
10:15 PM 73.4 °F - 71.6 °F 94% 30.06 in 4.0 mi NNW 3.5 mph - N/A   Clear
10:34 PM 73.4 °F - 71.6 °F 94% 30.07 in 4.0 mi Calm Calm - N/A   Clear
10:54 PM 71.6 °F - 71.6 °F 100% 30.07 in 3.0 mi NW 3.5 mph - N/A   Clear
11:14 PM 71.6 °F - 71.6 °F 100% 30.08 in 2.5 mi Calm Calm - N/A   Clear
11:34 PM 71.6 °F - 69.8 °F 94% 30.08 in 4.0 mi Calm Calm - N/A   Clear
11:54 PM 71.6 °F - 69.8 °F 94% 30.08 in 3.0 mi Calm Calm - N/A   Clear